Weather History for Jonesville, VA

Change the Weather History Date:

Friday, May 30, 2014

  Actual Average (KLOZ) Record (KLOZ)
Temperature  
Mean Temperature 72 °F 68 °F  
Max Temperature 82 °F 80 °F 91 °F (2006)
Min Temperature 62 °F 57 °F 39 °F (1984)
Degree Days  
Heating Degree Days 0 1  
Month to date heating degree days 93  
Since 1 July heating degree days 4194  
Cooling Degree Days 7 5  
Month to date cooling degree days 83  
Year to date cooling degree days 109  
Growing Degree Days 22 (Base 50)    
Moisture  
Dew Point 66 °F    
Average Humidity 92    
Maximum Humidity 100    
Minimum Humidity 54    
Precipitation  
Precipitation 0.35 in 0.17 in 1.24 in (1974)
Month to date precipitation 5.01  
Year to date precipitation 20.36  
Sea Level Pressure  
Sea Level Pressure 30.12 in    
Wind  
Wind Speed 0 mph (SW)    
Max Wind Speed 7 mph    
Max Gust Speed 20 mph    
Visibility 6 miles    
Events Fog , Rain , Thunderstorm    
T = Trace of Precipitation, MM = Missing Value Source: NWS Daily Summary

Daily Weather History Graph

Daily Weather History Graph

Search for Another Location

Airport:

Trip Planner

Search our weather history database for the weather conditions in past years. The results will help you decide how hot, cold, wet, or windy it might be!

Date:

Astronomy

May. 30, 2014 Rise Set
Actual Time 6:16 AM EDT 8:44 PM EDT
Civil Twilight 5:46 AM EDT 9:14 PM EDT
Nautical Twilight 5:09 AM EDT 9:51 PM EDT
Astronomical Twilight 4:28 AM EDT 10:32 PM EDT
Moon 7:58 AM EDT (5/30) 10:22 PM EDT (5/30)
Length of Visible Light 15h 28m
Length of Day
14h 28m
Waxing Crescent, 4% of the Moon is Illuminated
May 30
Waxing Crescent
Jun 5
First Quarter
Jun 13
Full
Jun 19
Last Quarter
Jun 27
New

Hourly Weather History & Observations

Time (EDT) Temp. Heat Index Dew Point Humidity Pressure Visibility Wind Dir Wind Speed Gust Speed Precip Events Conditions
12:15 AM 64.4 °F - 64.4 °F 100% 30.12 in 9.0 mi Calm Calm - N/A   Clear
12:35 AM 64.4 °F - 64.4 °F 100% 30.12 in 10.0 mi Calm Calm - N/A   Clear
12:55 AM 64.4 °F - 64.4 °F 100% 30.12 in 7.0 mi Calm Calm - N/A   Clear
1:15 AM 64.4 °F - 64.4 °F 100% 30.12 in 8.0 mi Calm Calm - N/A   Clear
1:35 AM 64.4 °F - 64.4 °F 100% 30.12 in 7.0 mi Calm Calm - N/A   Clear
1:55 AM 64.4 °F - 64.4 °F 100% 30.12 in 10.0 mi Calm Calm - N/A   Mostly Cloudy
2:15 AM 62.6 °F - 62.6 °F 100% 30.12 in 0.8 mi Calm Calm - N/A   Overcast
2:35 AM 64.4 °F - 64.4 °F 100% 30.11 in 4.0 mi Calm Calm - N/A   Mist
2:55 AM 64.4 °F - 64.4 °F 100% 30.11 in 2.5 mi Calm Calm - N/A   Mist
3:15 AM 62.6 °F - 62.6 °F 100% 30.11 in 0.5 mi Calm Calm - N/A Fog Fog
3:35 AM 64.4 °F - 64.4 °F 100% 30.11 in 1.0 mi Calm Calm - N/A   Mist
3:55 AM 64.4 °F - 64.4 °F 100% 30.11 in 0.8 mi Calm Calm - N/A   Mist
4:15 AM 64.4 °F - 64.4 °F 100% 30.11 in 0.2 mi Calm Calm - N/A Fog Fog
4:35 AM 62.6 °F - 62.6 °F 100% 30.11 in 0.8 mi Calm Calm - N/A   Mist
4:55 AM 62.6 °F - 62.6 °F 100% 30.11 in 0.2 mi Calm Calm - N/A Fog Fog
5:15 AM 62.6 °F - 62.6 °F 100% 30.11 in 0.5 mi Calm Calm - N/A Fog Fog
5:35 AM 62.6 °F - 62.6 °F 100% 30.11 in 0.2 mi Calm Calm - N/A Fog Fog
5:55 AM 62.6 °F - 62.6 °F 100% 30.11 in 0.5 mi Calm Calm - N/A Fog Fog
6:15 AM 62.6 °F - 62.6 °F 100% 30.12 in 0.2 mi Calm Calm - N/A Fog Fog
6:35 AM 62.6 °F - 62.6 °F 100% 30.12 in 0.2 mi Calm Calm - N/A Fog Fog
6:55 AM 62.6 °F - 62.6 °F 100% 30.13 in 0.2 mi Calm Calm - N/A Fog Fog
7:15 AM 62.6 °F - 62.6 °F 100% 30.13 in 0.2 mi Calm Calm - N/A Fog Fog
7:35 AM 62.6 °F - 62.6 °F 100% 30.13 in 0.2 mi Calm Calm - N/A Fog Fog
7:55 AM 62.6 °F - 62.6 °F 100% 30.13 in 0.2 mi Calm Calm - N/A Fog Fog
8:15 AM 62.6 °F - 62.6 °F 100% 30.13 in 0.2 mi Calm Calm - N/A Fog Fog
8:35 AM 64.4 °F - 64.4 °F 100% 30.13 in 1.5 mi Calm Calm - N/A   Overcast
8:55 AM 64.4 °F - 64.4 °F 100% 30.14 in 8.0 mi Calm Calm - N/A   Overcast
9:15 AM 64.4 °F - 64.4 °F 100% 30.14 in 7.0 mi Calm Calm - N/A   Overcast
9:35 AM 66.2 °F - 66.2 °F 100% 30.15 in 10.0 mi Calm Calm - N/A   Mostly Cloudy
9:55 AM 68.0 °F - 68.0 °F 100% 30.15 in 10.0 mi Calm Calm - N/A   Scattered Clouds
10:15 AM 71.6 °F - 66.2 °F 83% 30.15 in 10.0 mi Calm Calm - N/A   Clear
10:35 AM 73.4 °F - 66.2 °F 78% 30.15 in 10.0 mi Calm Calm - N/A   Clear
10:55 AM 75.2 °F - 66.2 °F 73% 30.15 in 10.0 mi Calm Calm - N/A   Clear
11:15 AM 77.0 °F - 64.4 °F 65% 30.15 in 10.0 mi Calm Calm - N/A   Clear
11:35 AM 78.8 °F - 66.2 °F 65% 30.16 in 10.0 mi Calm Calm - N/A   Clear
11:55 AM 80.6 °F 82.7 °F 66.2 °F 61% 30.16 in 10.0 mi Calm Calm - N/A   Clear
12:15 PM 80.6 °F 82.7 °F 66.2 °F 61% 30.16 in 10.0 mi Calm Calm - N/A   Partly Cloudy
12:35 PM 82.4 °F 83.9 °F 64.4 °F 54% 30.15 in 10.0 mi WSW 3.5 mph - N/A   Scattered Clouds
12:55 PM 82.4 °F 83.9 °F 64.4 °F 54% 30.14 in 10.0 mi Calm Calm - N/A   Partly Cloudy
1:15 PM 82.4 °F 83.9 °F 64.4 °F 54% 30.14 in 10.0 mi South 3.5 mph - N/A   Partly Cloudy
1:35 PM 80.6 °F 83.9 °F 69.8 °F 70% 30.14 in 1.5 mi NW 6.9 mph 19.6 mph 0.05 in Rain , Thunderstorm Light Rain
1:55 PM 73.4 °F - 71.6 °F 94% 30.12 in 5.0 mi ESE 3.5 mph - 0.31 in Rain , Thunderstorm Light Rain
2:15 PM 75.2 °F - 68.0 °F 78% 30.12 in 10.0 mi Calm Calm - N/A Thunderstorm Clear
2:35 PM 73.4 °F - 68.0 °F 83% 30.12 in 10.0 mi SW 5.8 mph - N/A Thunderstorm Clear
2:55 PM 73.4 °F - 68.0 °F 83% 30.11 in 10.0 mi WSW 4.6 mph - N/A   Partly Cloudy
3:15 PM 73.4 °F - 68.0 °F 83% 30.12 in 10.0 mi Calm Calm - N/A Thunderstorm Scattered Clouds
3:35 PM 71.6 °F - 68.0 °F 88% 30.13 in 9.0 mi Calm Calm - N/A Rain , Thunderstorm Light Rain
3:55 PM 69.8 °F - 68.0 °F 94% 30.12 in 1.8 mi Calm Calm - 0.04 in Rain Rain
4:15 PM 69.8 °F - 69.8 °F 100% 30.12 in 9.0 mi Calm Calm - N/A Rain Light Rain
5:15 PM 71.6 °F - 69.8 °F 94% 30.10 in 10.0 mi Calm Calm - N/A   Scattered Clouds
5:35 PM 71.6 °F - 69.8 °F 94% 30.10 in 10.0 mi Calm Calm - N/A   Scattered Clouds
5:55 PM 71.6 °F - 69.8 °F 94% 30.09 in 10.0 mi Calm Calm - N/A   Partly Cloudy
6:35 PM 73.4 °F - 68.0 °F 83% 30.09 in 10.0 mi Calm Calm - N/A   Clear
6:55 PM 73.4 °F - 68.0 °F 83% 30.10 in 10.0 mi Calm Calm - N/A   Partly Cloudy
7:15 PM 73.4 °F - 68.0 °F 83% 30.10 in 10.0 mi Calm Calm - N/A   Clear
7:35 PM 73.4 °F - 69.8 °F 88% 30.10 in 10.0 mi Calm Calm - N/A   Clear
7:55 PM 73.4 °F - 69.8 °F 88% 30.10 in 10.0 mi Calm Calm - N/A   Scattered Clouds
8:15 PM 71.6 °F - 71.6 °F 100% 30.10 in 10.0 mi Calm Calm - N/A   Partly Cloudy
8:35 PM 71.6 °F - 71.6 °F 100% 30.10 in 6.0 mi Calm Calm - N/A   Clear
8:55 PM 69.8 °F - 69.8 °F 100% 30.11 in 5.0 mi Calm Calm - N/A   Clear
9:15 PM 68.0 °F - 68.0 °F 100% 30.11 in 5.0 mi Calm Calm - N/A   Scattered Clouds
9:35 PM 68.0 °F - 68.0 °F 100% 30.12 in 5.0 mi Calm Calm - N/A   Mist
9:55 PM 68.0 °F - 68.0 °F 100% 30.12 in 3.0 mi Calm Calm - N/A   Mist
10:15 PM 68.0 °F - 68.0 °F 100% 30.13 in 0.8 mi Calm Calm - N/A   Mist
10:35 PM 68.0 °F - 68.0 °F 100% 30.14 in 0.2 mi Calm Calm - N/A Fog Fog
10:55 PM 66.2 °F - 66.2 °F 100% 30.14 in 0.5 mi Calm Calm - N/A Fog Fog
11:15 PM 66.2 °F - 66.2 °F 100% 30.14 in 0.2 mi Calm Calm - N/A Fog Fog
11:30 PM 66.2 °F - 66.2 °F 100% 30.14 in 0.8 mi Calm Calm - N/A   Mist
11:55 PM 66.2 °F - 66.2 °F 100% 30.15 in 0.2 mi Calm Calm - N/A Fog Fog